Content
SEND FEEDBACK

Daily
Averages
Monthly
Summary
United States of America

TAMUNING, GUAM


Home > North America > United States > Guam
Elevation: 250 feet     Latitude: 13 29N     Longitude: 144 47E

WEATHER
 
SELECT A DAY
Number of Records: 354,701;   Date Range: 1/1/95 - 11/26/14
 
SHARE

PRINT THIS DATA

[ ← Previous Day ]
WEATHER ALMANAC - FEBRUARY 6, 2013
[ Next Day → ]
[ °C ]   °F
Weather ElementAverageHighLow
Temperature78.9 °F84.2 °F (1:52 pm)75.2 °F (1:46 am)
Dewpoint71.6 °F73.4 °F (9:16 am)69.8 °F (12:19 am)
Humidity78.3 %89 % (1:46 am)66 % (1:52 pm)
Barometer29.87 in29.91 in (8:40 am)29.80 in (3:55 pm)
Wind Speed12.6 mph18.4 mph (12:20 am)
Wind Gust20.7 mph (11:08 am)
Weather ElementAverage
Visibility10 mi
Wind DirectionENE (75.9 °)

Weather ElementTotal
Precipitation0.01 in
Cooling Degree Days14.7 (Base 65)
Growing Degree Days29.7 (Base 50)
Averaged from 82 records on February 6, 2013
WEATHER CONDITIONS BREAKOUT
WIND DIRECTION BREAKOUT
WEATHER BY HOUR - FEBRUARY 6, 2013
[ °C ]   °F
Local TimeTemperatureDewpointHumidityBarometerVisibilityWind DirectionWind SpeedGust SpeedPrecipitationEventsConditions
12:19 AM77.0 °F69.8 °F78 %29.88 in10.0 miENE (60°)17.3 mphOvercast
12:20 AM77.0 °F69.8 °F78 %29.88 in10.0 miENE (60°)18.4 mphOvercast
12:21 AM77.0 °F69.8 °F78 %29.88 in10.0 miENE (60°)15.0 mphOvercast
12:23 AM77.0 °F69.8 °F78 %29.88 in10.0 miENE (60°)15.0 mphOvercast
12:26 AM77.0 °F69.8 °F78 %29.88 in10.0 miENE (60°)15.0 mphMostly Cloudy
12:28 AM77.0 °F69.8 °F78 %29.88 in10.0 miENE (60°)15.0 mphMostly Cloudy
12:45 AM77.0 °F69.8 °F78 %29.88 in10.0 miENE (60°)13.8 mphOvercast
12:55 AM77.0 °F70.5 °F80 %29.88 in10.0 miENE (60°)15.0 mphMostly Cloudy
1:10 AM77.0 °F69.8 °F78 %29.87 in10.0 miENE (60°)16.1 mphOvercast
1:12 AM77.0 °F69.8 °F78 %29.87 in10.0 miENE (60°)16.1 mphMostly Cloudy
1:22 AM77.0 °F71.6 °F83 %29.87 in10.0 miENE (60°)15.0 mphMostly Cloudy
1:25 AM77.0 °F71.6 °F83 %29.87 in10.0 miENE (60°)13.8 mphRainLight Rain
1:46 AM75.2 °F71.6 °F89 %29.87 in10.0 miENE (60°)13.8 mphOvercast
1:55 AM75.9 °F71.6 °F86 %29.87 in10.0 miENE (60°)15.0 mph0.01 inMostly Cloudy
2:20 AM77.0 °F71.6 °F83 %29.86 in10.0 miENE (60°)13.8 mphMostly Cloudy
2:43 AM77.0 °F71.6 °F83 %29.86 in10.0 miENE (70°)12.7 mphOvercast
2:55 AM76.5 °F70.9 °F83 %29.86 in10.0 miEast (80°)15.0 mphMostly Cloudy
3:55 AM75.9 °F70.3 °F83 %29.85 in10.0 miEast (80°)12.7 mphScattered Clouds
4:55 AM75.9 °F70.7 °F84 %29.86 in10.0 miEast (80°)10.4 mphScattered Clouds
5:38 AM77.0 °F71.6 °F83 %29.86 in10.0 miEast (80°)10.4 mphMostly Cloudy
5:46 AM77.0 °F71.6 °F83 %29.87 in10.0 miEast (80°)9.2 mphMostly Cloudy
5:55 AM76.1 °F71.1 °F84 %29.87 in10.0 miEast (90°)10.4 mphScattered Clouds
6:55 AM76.6 °F71.1 °F83 %29.88 in10.0 miENE (70°)12.7 mphScattered Clouds
7:28 AM77.0 °F71.6 °F83 %29.89 in10.0 miEast (80°)12.7 mphMostly Cloudy
7:55 AM79.0 °F71.2 °F77 %29.90 in10.0 miEast (80°)12.7 mphMostly Cloudy
7:59 AM78.8 °F71.6 °F78 %29.90 in10.0 miEast (90°)10.4 mphScattered Clouds
8:01 AM78.8 °F71.6 °F78 %29.90 in10.0 miEast (80°)11.5 mphMostly Cloudy
8:03 AM78.8 °F71.6 °F78 %29.90 in10.0 miEast (80°)9.2 mphScattered Clouds
8:40 AM78.8 °F71.6 °F78 %29.91 in10.0 miENE (70°)15.0 mphMostly Cloudy
8:44 AM78.8 °F71.6 °F78 %29.91 in10.0 miEast (90°)11.5 mphMostly Cloudy
8:54 AM80.6 °F71.6 °F74 %29.91 in10.0 miENE (70°)16.1 mphMostly Cloudy
8:55 AM80.8 °F72.1 °F75 %29.91 in10.0 miENE (70°)16.1 mphMostly Cloudy
9:16 AM80.6 °F73.4 °F79 %29.91 in10.0 miEast (100°)15.0 mphOvercast
9:17 AM80.6 °F73.4 °F79 %29.91 in10.0 miEast (100°)13.8 mphOvercast
9:18 AM80.6 °F73.4 °F79 %29.91 in10.0 miEast (100°)12.7 mphOvercast
9:45 AM80.6 °F73.4 °F79 %29.91 in10.0 miEast (90°)12.7 mphScattered Clouds
9:55 AM81.3 °F72.9 °F75 %29.91 in10.0 miEast (100°)12.7 mphScattered Clouds
10:10 AM80.6 °F73.4 °F79 %29.91 in10.0 miEast (80°)12.7 mphMostly Cloudy
10:12 AM80.6 °F73.4 °F79 %29.91 in10.0 miENE (70°)11.5 mphMostly Cloudy
10:18 AM82.4 °F73.4 °F74 %29.91 in10.0 miEast (90°)11.5 mphMostly Cloudy
10:33 AM80.6 °F73.4 °F79 %29.90 in10.0 miENE (60°)13.8 mphMostly Cloudy
10:39 AM82.4 °F73.4 °F74 %29.90 in10.0 miENE (70°)13.8 mphMostly Cloudy
10:44 AM80.6 °F73.4 °F79 %29.90 in10.0 miENE (60°)13.8 mphScattered Clouds
10:55 AM80.4 °F72.7 °F77 %29.90 in10.0 miENE (60°)15.0 mphScattered Clouds
10:59 AM80.6 °F73.4 °F79 %29.90 in10.0 miEast (80°)11.5 mphMostly Cloudy
11:08 AM82.4 °F73.4 °F74 %29.89 in10.0 miEast (80°)15.0 mph20.7 mphMostly Cloudy
11:10 AM82.4 °F73.4 °F74 %29.89 in10.0 miEast (90°)12.7 mph20.7 mphMostly Cloudy
11:26 AM82.4 °F73.4 °F74 %29.89 in10.0 miEast (100°)12.7 mphOvercast
11:37 AM80.6 °F73.4 °F79 %29.88 in10.0 miEast (90°)12.7 mphOvercast
11:55 AM82.2 °F72.1 °F71 %29.88 in10.0 miEast (90°)12.7 mphMostly Cloudy
12:03 PM82.4 °F71.6 °F70 %29.87 in10.0 miEast (100°)12.7 mphScattered Clouds
12:47 PM82.4 °F73.4 °F74 %29.86 in10.0 miENE (70°)12.7 mphMostly Cloudy
12:51 PM82.4 °F71.6 °F70 %29.86 in10.0 miEast (90°)9.2 mphScattered Clouds
12:52 PM82.4 °F73.4 °F74 %29.86 in10.0 miEast (90°)10.4 mph17.3 mphMostly Cloudy
12:55 PM82.0 °F72.7 °F73 %29.86 in10.0 miENE (70°)10.4 mph17.3 mphMostly Cloudy
1:52 PM84.2 °F71.6 °F66 %29.83 in10.0 miEast (90°)10.4 mphScattered Clouds
1:55 PM83.7 °F72.0 °F68 %29.83 in10.0 miEast (90°)12.7 mphScattered Clouds
1:57 PM84.2 °F71.6 °F66 %29.83 in10.0 miEast (80°)10.4 mphMostly Cloudy
2:45 PM82.4 °F71.6 °F70 %29.81 in10.0 miENE (70°)11.5 mphScattered Clouds
2:55 PM82.0 °F72.5 °F73 %29.81 in10.0 miENE (70°)12.7 mphPartly Cloudy
3:55 PM80.8 °F72.3 °F75 %29.80 in10.0 miEast (80°)13.8 mphScattered Clouds
4:55 PM80.1 °F71.4 °F75 %29.81 in10.0 miENE (70°)9.2 mphPartly Cloudy
5:55 PM78.4 °F70.9 °F77 %29.82 in10.0 miENE (70°)10.4 mphPartly Cloudy
6:55 PM77.5 °F72.0 °F83 %29.83 in10.0 miEast (80°)11.5 mphMostly Cloudy
7:07 PM77.0 °F71.6 °F83 %29.83 in10.0 miENE (60°)11.5 mphMostly Cloudy
7:11 PM77.0 °F71.6 °F83 %29.83 in10.0 miENE (70°)9.2 mphMostly Cloudy
7:55 PM75.9 °F70.5 °F83 %29.85 in10.0 miENE (60°)8.1 mphClear
8:31 PM77.0 °F71.6 °F83 %29.86 in10.0 miENE (70°)8.1 mphMostly Cloudy
8:35 PM77.0 °F71.6 °F83 %29.87 in10.0 miENE (70°)8.1 mphScattered Clouds
8:55 PM76.6 °F70.5 °F81 %29.87 in10.0 miENE (70°)9.2 mphScattered Clouds
9:47 PM77.0 °F71.6 °F83 %29.88 in10.0 miEast (80°)13.8 mphMostly Cloudy
9:53 PM77.0 °F71.6 °F83 %29.88 in10.0 miENE (70°)12.7 mphMostly Cloudy
9:55 PM77.5 °F70.9 °F80 %29.88 in10.0 miEast (80°)15.0 mphMostly Cloudy
9:57 PM77.0 °F69.8 °F78 %29.88 in10.0 miEast (80°)13.8 mphMostly Cloudy
9:58 PM77.0 °F69.8 °F78 %29.88 in10.0 miEast (80°)13.8 mphMostly Cloudy
10:01 PM77.0 °F69.8 °F78 %29.88 in10.0 miEast (80°)12.7 mphMostly Cloudy
10:03 PM77.0 °F69.8 °F78 %29.88 in10.0 miEast (80°)10.4 mphMostly Cloudy
10:07 PM77.0 °F69.8 °F78 %29.88 in10.0 miEast (80°)10.4 mphMostly Cloudy
10:47 PM77.0 °F71.6 °F83 %29.87 in10.0 miEast (80°)12.7 mphMostly Cloudy
10:54 PM77.0 °F69.8 °F78 %29.87 in10.0 miEast (80°)10.4 mphMostly Cloudy
10:55 PM77.2 °F70.5 °F80 %29.87 in10.0 miEast (80°)10.4 mphMostly Cloudy
11:55 PM76.5 °F70.3 °F81 %29.87 in10.0 miEast (80°)9.2 mphScattered Clouds
Hourly data recorded from PGUA, located miles away from Tamuning, Guam







STORIES FROM OUR PARTNERS